Time,TemperatureF,DewpointF,PressureIn,WindDirection,WindDirectionDegrees,WindSpeedMPH,WindSpeedGustMPH,Humidity,HourlyPrecipIn,Conditions,Clouds,dailyrainin,SolarRadiationWatts/m^2,SoftwareType,DateUTC
2013-06-06 00:03:00,69.7,62.5,29.98,ENE,57,10.4,10.4,78,0.00,CLR,,0.00,0.0,WeatherDisplay:10.37,2013-06-06 10:03:00,
2013-06-06 00:08:00,69.7,62.9,29.98,North,360,11.5,11.5,79,0.00,CLR,,0.00,0.0,WeatherDisplay:10.37,2013-06-06 10:08:00,
2013-06-06 00:13:00,69.8,63.0,29.98,East,82,9.2,9.2,79,0.00,CLR,,0.00,0.0,WeatherDisplay:10.37,2013-06-06 10:13:00,
2013-06-06 00:18:00,69.8,63.0,29.98,ENE,69,9.2,9.2,79,0.00,CLR,,0.00,0.0,WeatherDisplay:10.37,2013-06-06 10:18:00,
2013-06-06 00:23:00,69.8,63.0,29.98,ENE,77,4.6,4.6,79,0.00,CLR,,0.00,0.0,WeatherDisplay:10.37,2013-06-06 10:23:00,
2013-06-06 00:28:00,69.7,63.3,29.98,NE,38,5.8,5.8,80,0.00,CLR,,0.00,0.0,WeatherDisplay:10.37,2013-06-06 10:28:00,
2013-06-06 00:33:00,69.5,63.1,29.98,North,10,6.9,6.9,80,0.00,CLR,,0.00,0.0,WeatherDisplay:10.37,2013-06-06 10:33:00,
2013-06-06 00:38:00,69.4,63.0,29.98,NE,52,4.6,4.6,80,0.00,CLR,,0.00,0.0,WeatherDisplay:10.37,2013-06-06 10:38:00,
2013-06-06 00:43:00,69.4,63.0,29.98,ENE,78,8.1,8.1,80,0.00,CLR,,0.00,0.0,WeatherDisplay:10.37,2013-06-06 10:43:00,
2013-06-06 00:48:00,69.3,62.9,29.98,East,86,6.9,6.9,80,0.00,CLR,,0.00,0.0,WeatherDisplay:10.37,2013-06-06 10:48:00,
2013-06-06 00:53:00,69.3,62.5,29.97,NNE,22,8.1,8.1,79,0.00,CLR,,0.00,0.0,WeatherDisplay:10.37,2013-06-06 10:53:00,
2013-06-06 00:58:00,69.4,62.6,29.97,NE,53,5.8,5.8,79,0.00,CLR,,0.00,0.0,WeatherDisplay:10.37,2013-06-06 10:58:00,
2013-06-06 01:03:00,69.4,62.6,29.97,NNE,12,8.1,8.1,79,0.00,CLR,,0.00,0.0,WeatherDisplay:10.37,2013-06-06 11:03:00,
2013-06-06 01:08:00,69.4,62.6,29.97,NE,42,9.0,9.0,79,0.00,CLR,,0.00,0.0,WeatherDisplay:10.37,2013-06-06 11:08:00,
2013-06-06 01:13:00,69.4,62.2,29.97,NE,55,9.2,9.2,78,0.00,CLR,,0.00,0.0,WeatherDisplay:10.37,2013-06-06 11:13:00,
2013-06-06 01:18:00,69.5,62.0,29.97,ENE,72,4.6,4.6,77,0.00,CLR,,0.00,0.0,WeatherDisplay:10.37,2013-06-06 11:18:00,
2013-06-06 01:23:00,69.5,62.0,29.97,East,83,8.1,8.1,77,0.00,CLR,,0.00,0.0,WeatherDisplay:10.37,2013-06-06 11:23:00,
2013-06-06 01:28:00,69.6,62.1,29.96,ENE,57,6.9,6.9,77,0.00,CLR,,0.00,0.0,WeatherDisplay:10.37,2013-06-06 11:28:00,
2013-06-06 01:33:00,69.6,62.1,29.96,ENE,63,7.0,7.0,77,0.00,CLR,,0.00,0.0,WeatherDisplay:10.37,2013-06-06 11:33:00,
2013-06-06 01:38:00,69.5,62.0,29.96,ENE,69,4.6,4.6,77,0.00,CLR,,0.00,0.0,WeatherDisplay:10.37,2013-06-06 11:38:00,
2013-06-06 01:43:00,69.5,62.0,29.96,ENE,58,5.8,5.8,77,0.00,CLR,,0.00,0.0,WeatherDisplay:10.37,2013-06-06 11:43:00,
2013-06-06 01:48:00,69.5,62.0,29.96,NE,54,4.6,4.6,77,0.00,CLR,,0.00,0.0,WeatherDisplay:10.37,2013-06-06 11:48:00,
2013-06-06 01:53:00,69.5,62.3,29.96,ENE,67,3.5,3.5,78,0.00,CLR,,0.00,0.0,WeatherDisplay:10.37,2013-06-06 11:53:00,
2013-06-06 01:58:00,69.5,62.3,29.95,NE,39,4.6,4.6,78,0.00,CLR,,0.00,0.0,WeatherDisplay:10.37,2013-06-06 11:58:00,
2013-06-06 02:03:00,69.6,62.4,29.96,NE,46,4.6,4.6,78,0.00,CLR,,0.00,0.0,WeatherDisplay:10.37,2013-06-06 12:03:00,
2013-06-06 02:08:00,69.7,62.5,29.95,ENE,61,8.1,8.1,78,0.00,CLR,,0.00,0.0,WeatherDisplay:10.37,2013-06-06 12:08:00,
2013-06-06 02:13:00,69.8,62.3,29.95,ENE,64,9.2,9.2,77,0.00,CLR,,0.00,0.0,WeatherDisplay:10.37,2013-06-06 12:13:00,
2013-06-06 02:18:00,69.9,62.4,29.95,ENE,74,6.9,6.9,77,0.00,CLR,,0.00,0.0,WeatherDisplay:10.37,2013-06-06 12:18:00,
2013-06-06 02:23:00,69.9,62.4,29.95,ENE,63,6.9,6.9,77,0.00,CLR,,0.00,0.0,WeatherDisplay:10.37,2013-06-06 12:23:00,
2013-06-06 02:28:00,70.0,62.8,29.95,North,9,4.0,4.0,78,0.00,CLR,,0.00,0.0,WeatherDisplay:10.37,2013-06-06 12:28:00,
2013-06-06 02:33:00,70.0,62.8,29.95,NE,40,4.6,4.6,78,0.00,CLR,,0.00,0.0,WeatherDisplay:10.37,2013-06-06 12:33:00,
2013-06-06 02:38:00,70.0,62.8,29.95,ENE,66,8.0,8.0,78,0.00,CLR,,0.00,0.0,WeatherDisplay:10.37,2013-06-06 12:38:00,
2013-06-06 02:43:00,70.0,62.8,29.95,ENE,71,3.5,3.5,78,0.00,CLR,,0.00,0.0,WeatherDisplay:10.37,2013-06-06 12:43:00,
2013-06-06 02:48:00,70.0,63.2,29.95,NE,51,8.1,8.1,79,0.00,CLR,,0.00,0.0,WeatherDisplay:10.37,2013-06-06 12:48:00,
2013-06-06 02:53:00,70.0,63.2,29.95,NE,52,6.9,6.9,79,0.00,CLR,,0.00,0.0,WeatherDisplay:10.37,2013-06-06 12:53:00,
2013-06-06 02:58:00,69.9,63.1,29.95,NE,47,4.6,4.6,79,0.00,CLR,,0.00,0.0,WeatherDisplay:10.37,2013-06-06 12:58:00,
2013-06-06 03:03:00,69.9,63.1,29.95,ENE,58,4.6,4.6,79,0.00,CLR,,0.00,0.0,WeatherDisplay:10.37,2013-06-06 13:03:00,
2013-06-06 03:08:00,69.9,63.4,29.95,NE,49,9.2,9.2,80,0.00,CLR,,0.00,0.0,WeatherDisplay:10.37,2013-06-06 13:08:00,
2013-06-06 03:13:00,69.8,63.3,29.95,NNE,22,5.8,5.8,80,0.00,CLR,,0.00,0.0,WeatherDisplay:10.37,2013-06-06 13:13:00,
2013-06-06 03:18:00,69.7,62.9,29.95,NNE,33,4.6,4.6,79,0.00,CLR,,0.00,0.0,WeatherDisplay:10.37,2013-06-06 13:18:00,
2013-06-06 03:23:00,69.7,62.9,29.95,NNE,17,5.8,5.8,79,0.00,CLR,,0.00,0.0,WeatherDisplay:10.37,2013-06-06 13:23:00,
2013-06-06 03:28:00,69.6,62.8,29.95,ENE,58,8.1,8.1,79,0.00,CLR,,0.00,0.0,WeatherDisplay:10.37,2013-06-06 13:28:00,
2013-06-06 03:33:00,69.5,62.7,29.95,ENE,62,4.6,4.6,79,0.00,CLR,,0.00,0.0,WeatherDisplay:10.37,2013-06-06 13:33:00,
2013-06-06 03:38:00,69.5,62.7,29.95,NE,43,4.6,4.6,79,0.00,CLR,,0.00,0.0,WeatherDisplay:10.37,2013-06-06 13:38:00,
2013-06-06 03:43:00,69.5,62.3,29.95,NNW,348,6.9,6.9,78,0.00,CLR,,0.00,0.0,WeatherDisplay:10.37,2013-06-06 13:43:00,
2013-06-06 03:48:00,69.5,62.3,29.95,ENE,59,4.6,4.6,78,0.00,CLR,,0.00,0.0,WeatherDisplay:10.37,2013-06-06 13:48:00,
2013-06-06 03:53:00,69.6,62.4,29.95,ENE,58,5.0,5.0,78,0.00,CLR,,0.00,0.0,WeatherDisplay:10.37,2013-06-06 13:53:00,
2013-06-06 03:58:00,69.7,62.5,29.95,North,5,3.5,3.5,78,0.00,CLR,,0.00,0.0,WeatherDisplay:10.37,2013-06-06 13:58:00,
2013-06-06 04:03:00,69.7,62.5,29.95,NE,55,5.8,5.8,78,0.00,CLR,,0.00,0.0,WeatherDisplay:10.37,2013-06-06 14:03:00,
2013-06-06 04:08:00,69.7,62.5,29.95,NE,44,6.9,6.9,78,0.00,CLR,,0.00,0.0,WeatherDisplay:10.37,2013-06-06 14:08:00,
2013-06-06 04:13:00,69.8,62.6,29.95,NE,51,4.6,4.6,78,0.00,CLR,,0.00,0.0,WeatherDisplay:10.37,2013-06-06 14:13:00,
2013-06-06 04:18:00,69.8,62.6,29.95,ENE,75,4.0,4.0,78,0.00,CLR,,0.00,0.0,WeatherDisplay:10.37,2013-06-06 14:18:00,
2013-06-06 04:23:00,69.8,62.6,29.95,NE,36,6.9,6.9,78,0.00,CLR,,0.00,0.0,WeatherDisplay:10.37,2013-06-06 14:23:00,
2013-06-06 04:28:00,69.8,62.6,29.96,NNE,29,4.6,4.6,78,0.00,CLR,,0.00,0.0,WeatherDisplay:10.37,2013-06-06 14:28:00,
2013-06-06 04:33:00,69.8,62.6,29.95,NNE,25,6.9,6.9,78,0.00,CLR,,0.00,0.0,WeatherDisplay:10.37,2013-06-06 14:33:00,
2013-06-06 04:38:00,69.8,62.6,29.96,NNE,23,11.5,11.5,78,0.00,CLR,,0.00,0.0,WeatherDisplay:10.37,2013-06-06 14:38:00,
2013-06-06 04:43:00,69.8,62.6,29.95,East,85,9.2,9.2,78,0.00,CLR,,0.00,0.0,WeatherDisplay:10.37,2013-06-06 14:43:00,
2013-06-06 04:48:00,69.8,62.6,29.95,ENE,65,8.1,8.1,78,0.00,CLR,,0.00,0.0,WeatherDisplay:10.37,2013-06-06 14:48:00,
2013-06-06 04:53:00,69.8,62.3,29.96,NNE,24,4.6,4.6,77,0.00,CLR,,0.00,0.0,WeatherDisplay:10.37,2013-06-06 14:53:00,
2013-06-06 04:58:00,69.7,62.5,29.95,NE,44,9.2,9.2,78,0.00,CLR,,0.00,0.0,WeatherDisplay:10.37,2013-06-06 14:58:00,
2013-06-06 05:03:00,69.6,62.4,29.96,NNE,32,8.1,8.1,78,0.00,CLR,,0.00,0.0,WeatherDisplay:10.37,2013-06-06 15:03:00,
2013-06-06 05:08:00,69.6,62.8,29.96,ENE,59,9.2,9.2,79,0.00,CLR,,0.00,0.0,WeatherDisplay:10.37,2013-06-06 15:08:00,
2013-06-06 05:13:00,69.5,62.7,29.96,NE,53,4.6,4.6,79,0.00,CLR,,0.00,0.0,WeatherDisplay:10.37,2013-06-06 15:13:00,
2013-06-06 05:18:00,69.5,62.7,29.96,NNE,33,5.8,5.8,79,0.00,CLR,,0.00,0.0,WeatherDisplay:10.37,2013-06-06 15:18:00,
2013-06-06 05:23:00,69.4,62.6,29.96,ENE,67,5.0,5.0,79,0.00,CLR,,0.00,0.0,WeatherDisplay:10.37,2013-06-06 15:23:00,
2013-06-06 05:28:00,69.4,62.2,29.96,North,355,4.6,4.6,78,0.00,CLR,,0.00,0.0,WeatherDisplay:10.37,2013-06-06 15:28:00,
2013-06-06 05:33:00,69.4,62.2,29.96,NE,40,4.6,4.6,78,0.00,CLR,,0.00,0.0,WeatherDisplay:10.37,2013-06-06 15:33:00,
2013-06-06 05:38:00,69.4,62.2,29.96,ENE,58,4.6,4.6,78,0.00,CLR,,0.00,0.0,WeatherDisplay:10.37,2013-06-06 15:38:00,
2013-06-06 05:43:00,69.5,62.3,29.97,ENE,63,6.9,6.9,78,0.00,CLR,,0.00,0.0,WeatherDisplay:10.37,2013-06-06 15:43:00,
2013-06-06 05:48:00,69.5,62.3,29.97,North,355,4.6,4.6,78,0.00,CLR,,0.00,0.0,WeatherDisplay:10.37,2013-06-06 15:48:00,
2013-06-06 05:53:00,69.5,62.3,29.97,NE,40,3.5,3.5,78,0.00,CLR,,0.00,7.0,WeatherDisplay:10.37,2013-06-06 15:53:00,
2013-06-06 05:58:00,69.4,62.2,29.97,NNE,15,4.6,4.6,78,0.00,BKN,,0.00,9.0,WeatherDisplay:10.37,2013-06-06 15:58:00,
2013-06-06 06:03:00,69.4,62.2,29.97,ENE,71,4.6,4.6,78,0.00,BKN,,0.00,12.0,WeatherDisplay:10.37,2013-06-06 16:03:00,
2013-06-06 06:08:00,69.4,62.2,29.97,NE,51,5.8,5.8,78,0.00,CLR,,0.00,14.0,WeatherDisplay:10.37,2013-06-06 16:08:00,
2013-06-06 06:13:00,69.3,62.1,29.97,East,81,8.1,8.1,78,0.00,CLR,,0.00,14.0,WeatherDisplay:10.37,2013-06-06 16:13:00,
2013-06-06 06:18:00,69.3,62.1,29.98,ENE,57,8.1,8.1,78,0.00,BKN,,0.00,25.0,WeatherDisplay:10.37,2013-06-06 16:18:00,
2013-06-06 06:23:00,69.3,62.1,29.98,NE,47,6.9,6.9,78,0.00,BKN,,0.00,33.0,WeatherDisplay:10.37,2013-06-06 16:23:00,
2013-06-06 06:28:00,69.4,62.2,29.98,ENE,71,5.8,5.8,78,0.00,BKN,,0.00,39.0,WeatherDisplay:10.37,2013-06-06 16:28:00,
2013-06-06 06:33:00,69.4,62.2,29.98,NE,36,8.1,8.1,78,0.00,BKN,,0.00,42.0,WeatherDisplay:10.37,2013-06-06 16:33:00,
2013-06-06 06:38:00,69.4,62.2,29.99,East,79,6.9,6.9,78,0.00,BKN,,0.00,46.0,WeatherDisplay:10.37,2013-06-06 16:38:00,
2013-06-06 06:43:00,69.3,62.5,29.98,NE,46,6.9,6.9,79,0.00,CLR,,0.00,42.0,WeatherDisplay:10.37,2013-06-06 16:43:00,
2013-06-06 06:48:00,69.3,62.5,29.98,North,360,9.2,9.2,79,0.00,CLR,,0.00,35.0,WeatherDisplay:10.37,2013-06-06 16:48:00,
2013-06-06 06:53:00,69.4,63.0,29.98,North,5,10.0,10.0,80,0.00,CLR,,0.00,30.0,WeatherDisplay:10.37,2013-06-06 16:53:00,
2013-06-06 06:58:00,69.4,63.0,29.98,North,11,6.9,6.9,80,0.00,CLR,,0.00,47.0,WeatherDisplay:10.37,2013-06-06 16:58:00,
2013-06-06 07:03:00,69.5,63.4,29.99,NE,56,9.2,9.2,81,0.00,CLR,,0.00,156.0,WeatherDisplay:10.37,2013-06-06 17:03:00,
2013-06-06 07:08:00,69.8,63.7,29.99,ENE,59,6.9,6.9,81,0.00,CLR,,0.00,179.0,WeatherDisplay:10.37,2013-06-06 17:08:00,
2013-06-06 07:13:00,70.2,64.1,29.99,NE,46,5.8,5.8,81,0.00,CLR,,0.00,251.0,WeatherDisplay:10.37,2013-06-06 17:13:00,
2013-06-06 07:18:00,70.6,64.1,29.99,NNE,12,6.9,6.9,80,0.00,CLR,,0.00,265.0,WeatherDisplay:10.37,2013-06-06 17:18:00,
2013-06-06 07:23:00,71.0,64.2,29.99,ENE,73,6.9,6.9,79,0.00,CLR,,0.00,285.0,WeatherDisplay:10.37,2013-06-06 17:23:00,
2013-06-06 07:28:00,71.2,64.0,29.99,NNE,32,9.2,9.2,78,0.00,CLR,,0.00,306.0,WeatherDisplay:10.37,2013-06-06 17:28:00,
2013-06-06 07:33:00,71.5,64.3,30.00,NNE,20,8.1,8.1,78,0.00,CLR,,0.00,327.0,WeatherDisplay:10.37,2013-06-06 17:33:00,
2013-06-06 07:38:00,71.8,64.2,29.99,ENE,60,6.9,6.9,77,0.00,CLR,,0.00,348.0,WeatherDisplay:10.37,2013-06-06 17:38:00,
2013-06-06 07:43:00,72.0,64.4,29.99,NE,51,6.9,6.9,77,0.00,CLR,,0.00,396.0,WeatherDisplay:10.37,2013-06-06 17:43:00,
2013-06-06 07:48:00,72.3,64.3,29.99,NE,55,5.8,5.8,76,0.00,CLR,,0.00,403.0,WeatherDisplay:10.37,2013-06-06 17:48:00,
2013-06-06 07:53:00,72.6,64.6,29.99,ENE,65,8.1,8.1,76,0.00,CLR,,0.00,308.0,WeatherDisplay:10.37,2013-06-06 17:53:00,
2013-06-06 07:58:00,72.5,64.1,29.99,NE,53,4.6,4.6,75,0.00,CLR,,0.00,413.0,WeatherDisplay:10.37,2013-06-06 17:58:00,
2013-06-06 08:03:00,72.6,64.6,29.99,NE,54,4.6,4.6,76,0.00,CLR,,0.00,517.0,WeatherDisplay:10.37,2013-06-06 18:03:00,
2013-06-06 08:08:00,72.8,64.4,29.99,NNE,30,4.6,4.6,75,0.00,BKN,,0.00,171.0,WeatherDisplay:10.37,2013-06-06 18:08:00,
2013-06-06 08:13:00,73.0,64.6,29.99,NE,55,9.2,9.2,75,0.00,FEW,,0.00,285.0,WeatherDisplay:10.37,2013-06-06 18:13:00,
2013-06-06 08:18:00,73.1,64.3,29.99,North,9,6.9,6.9,74,0.00,BKN,,0.00,144.0,WeatherDisplay:10.37,2013-06-06 18:18:00,
2013-06-06 08:23:00,73.2,64.8,29.99,NE,42,10.4,10.4,75,0.00,CLR,,0.00,585.0,WeatherDisplay:10.37,2013-06-06 18:23:00,
2013-06-06 08:28:00,73.6,65.2,29.99,ENE,57,8.1,8.1,75,0.00,CLR,,0.00,526.0,WeatherDisplay:10.37,2013-06-06 18:28:00,
2013-06-06 08:33:00,74.2,65.4,29.99,SE,134,8.1,8.1,74,0.00,CLR,,0.00,547.0,WeatherDisplay:10.37,2013-06-06 18:33:00,
2013-06-06 08:38:00,74.6,65.0,29.99,ENE,58,9.2,9.2,72,0.00,CLR,,0.00,578.0,WeatherDisplay:10.37,2013-06-06 18:38:00,
2013-06-06 08:43:00,74.7,64.3,29.99,ENE,63,9.2,9.2,70,0.00,BKN,,0.00,211.0,WeatherDisplay:10.37,2013-06-06 18:43:00,
2013-06-06 08:48:00,74.4,64.0,30.00,NE,45,9.2,9.2,70,0.00,BKN,,0.00,251.0,WeatherDisplay:10.37,2013-06-06 18:48:00,
2013-06-06 08:53:00,74.3,64.3,30.00,North,360,9.2,9.2,71,0.00,CLR,,0.00,761.0,WeatherDisplay:10.37,2013-06-06 18:53:00,
2013-06-06 08:58:00,74.7,64.7,30.00,ENE,57,9.0,9.0,71,0.00,CLR,,0.00,169.0,WeatherDisplay:10.37,2013-06-06 18:58:00,
2013-06-06 09:03:00,74.7,64.7,30.00,NNE,19,9.2,9.2,71,0.00,BKN,,0.00,260.0,WeatherDisplay:10.37,2013-06-06 19:03:00,
2013-06-06 09:08:00,74.7,65.1,30.00,ENE,65,6.9,6.9,72,0.00,CLR,,0.00,816.0,WeatherDisplay:10.37,2013-06-06 19:08:00,
2013-06-06 09:13:00,75.0,65.4,30.00,ENE,74,8.1,8.1,72,0.00,CLR,,0.00,745.0,WeatherDisplay:10.37,2013-06-06 19:13:00,
2013-06-06 09:18:00,75.2,65.1,30.00,NNE,12,10.4,10.4,71,0.00,OVC,,0.00,204.0,WeatherDisplay:10.37,2013-06-06 19:18:00,
2013-06-06 09:23:00,75.0,64.5,30.00,ENE,65,8.1,8.1,70,0.00,BKN,,0.00,281.0,WeatherDisplay:10.37,2013-06-06 19:23:00,
2013-06-06 09:28:00,75.2,64.3,30.00,ENE,71,8.1,8.1,69,0.00,CLR,,0.00,780.0,WeatherDisplay:10.37,2013-06-06 19:28:00,
2013-06-06 09:33:00,75.5,64.2,30.00,NE,49,8.1,8.1,68,0.00,OVC,,0.00,213.0,WeatherDisplay:10.37,2013-06-06 19:33:00,
2013-06-06 09:34:00,75.5,64.2,30.00,SE,128,12.7,12.7,68,0.00,OVC,,0.00,213.0,WeatherDisplay:10.37,2013-06-06 19:34:00,
2013-06-06 09:39:00,75.6,64.3,30.00,ENE,67,8.1,8.1,68,0.00,CLR,,0.00,821.0,WeatherDisplay:10.37,2013-06-06 19:39:00,
2013-06-06 09:44:00,76.2,64.4,30.00,NNE,32,9.2,9.2,67,0.00,CLR,,0.00,826.0,WeatherDisplay:10.37,2013-06-06 19:44:00,
2013-06-06 09:49:00,76.8,63.7,30.00,ENE,57,10.4,10.4,64,0.00,BKN,,0.00,285.0,WeatherDisplay:10.37,2013-06-06 19:49:00,
2013-06-06 09:54:00,77.2,64.1,30.00,NNE,15,6.0,6.0,64,0.00,CLR,,0.00,889.0,WeatherDisplay:10.37,2013-06-06 19:54:00,
2013-06-06 09:59:00,77.4,63.4,30.00,ENE,57,10.4,10.4,62,0.00,CLR,,0.00,1063.0,WeatherDisplay:10.37,2013-06-06 19:59:00,
2013-06-06 10:04:00,77.9,64.3,29.99,ENE,60,8.0,8.0,63,0.00,CLR,,0.00,1046.0,WeatherDisplay:10.37,2013-06-06 20:04:00,
2013-06-06 10:09:00,77.8,62.8,29.99,ENE,65,9.2,9.2,60,0.00,BKN,,0.00,315.0,WeatherDisplay:10.37,2013-06-06 20:09:00,
2013-06-06 10:14:00,77.3,62.8,29.99,East,98,6.9,6.9,61,0.00,BKN,,0.00,297.0,WeatherDisplay:10.37,2013-06-06 20:14:00,
2013-06-06 10:19:00,77.2,63.6,29.99,East,98,9.2,9.2,63,0.00,BKN,,0.00,1055.0,WeatherDisplay:10.37,2013-06-06 20:19:00,
2013-06-06 10:24:00,77.6,64.0,29.99,NE,53,15.0,15.0,63,0.00,CLR,,0.00,1085.0,WeatherDisplay:10.37,2013-06-06 20:24:00,
2013-06-06 10:29:00,77.9,64.3,29.99,ESE,112,9.2,9.2,63,0.00,CLR,,0.00,1069.0,WeatherDisplay:10.37,2013-06-06 20:29:00,
2013-06-06 10:34:00,78.4,64.8,29.99,NNE,27,11.5,11.5,63,0.00,BKN,,0.00,343.0,WeatherDisplay:10.37,2013-06-06 20:34:00,
2013-06-06 10:39:00,78.5,64.9,29.99,ENE,78,9.2,9.2,63,0.00,CLR,,0.00,1023.0,WeatherDisplay:10.37,2013-06-06 20:39:00,
2013-06-06 10:44:00,78.5,63.9,29.99,East,94,19.6,19.6,61,0.00,BKN,,0.00,325.0,WeatherDisplay:10.37,2013-06-06 20:44:00,
2013-06-06 10:49:00,77.5,64.4,29.99,East,99,9.2,9.2,64,0.00,BKN,,0.00,327.0,WeatherDisplay:10.37,2013-06-06 20:49:00,
2013-06-06 10:54:00,77.2,64.1,29.99,East,84,11.5,11.5,64,0.00,CLR,,0.00,1088.0,WeatherDisplay:10.37,2013-06-06 20:54:00,
2013-06-06 10:59:00,77.4,63.8,29.99,ESE,111,10.4,10.4,63,0.00,BKN,,0.00,360.0,WeatherDisplay:10.37,2013-06-06 20:59:00,
2013-06-06 11:04:00,77.6,64.0,29.98,SE,126,11.5,11.5,63,0.00,CLR,,0.00,1034.0,WeatherDisplay:10.37,2013-06-06 21:04:00,
2013-06-06 11:09:00,78.1,64.5,29.98,NE,40,8.1,8.1,63,0.00,CLR,,0.00,1014.0,WeatherDisplay:10.37,2013-06-06 21:09:00,
2013-06-06 11:14:00,78.3,64.2,29.98,East,88,9.2,9.2,62,0.00,CLR,,0.00,1129.0,WeatherDisplay:10.37,2013-06-06 21:14:00,
2013-06-06 11:19:00,78.4,63.8,29.98,ESE,118,11.5,11.5,61,0.00,CLR,,0.00,1220.0,WeatherDisplay:10.37,2013-06-06 21:19:00,
2013-06-06 11:24:00,78.5,63.5,29.98,East,98,11.5,11.5,60,0.00,OVC,,0.00,292.0,WeatherDisplay:10.37,2013-06-06 21:24:00,
2013-06-06 11:29:00,78.5,63.9,29.98,NNW,342,9.2,9.2,61,0.00,BKN,,0.00,373.0,WeatherDisplay:10.37,2013-06-06 21:29:00,
2013-06-06 11:34:00,78.4,63.8,29.98,NE,49,11.5,11.5,61,0.00,OVC,,0.00,234.0,WeatherDisplay:10.37,2013-06-06 21:34:00,
2013-06-06 11:39:00,78.0,63.0,29.98,NE,52,10.4,10.4,60,0.00,OVC,,0.00,278.0,WeatherDisplay:10.37,2013-06-06 21:39:00,
2013-06-06 11:44:00,77.7,63.2,29.97,ENE,78,9.2,9.2,61,0.00,OVC,,0.00,304.0,WeatherDisplay:10.37,2013-06-06 21:44:00,
2013-06-06 11:49:00,78.0,63.9,29.97,NE,53,8.1,8.1,62,0.00,CLR,,0.00,1121.0,WeatherDisplay:10.37,2013-06-06 21:49:00,
2013-06-06 11:54:00,78.4,63.8,29.97,ENE,62,9.0,9.0,61,0.00,CLR,,0.00,1044.0,WeatherDisplay:10.37,2013-06-06 21:54:00,
2013-06-06 11:59:00,78.9,63.8,29.97,NE,53,11.5,11.5,60,0.00,CLR,,0.00,1090.0,WeatherDisplay:10.37,2013-06-06 21:59:00,
2013-06-06 12:04:00,79.0,63.4,29.97,ENE,57,10.4,10.4,59,0.00,CLR,,0.00,1090.0,WeatherDisplay:10.37,2013-06-06 22:04:00,
2013-06-06 12:09:00,78.7,63.6,29.97,NW,323,10.4,10.4,60,0.00,CLR,,0.00,1236.0,WeatherDisplay:10.37,2013-06-06 22:09:00,
2013-06-06 12:14:00,78.8,63.7,29.97,ESE,105,9.2,9.2,60,0.00,BKN,,0.00,345.0,WeatherDisplay:10.37,2013-06-06 22:14:00,
2013-06-06 12:19:00,78.9,63.4,29.97,ENE,78,8.0,8.0,59,0.00,CLR,,0.00,1136.0,WeatherDisplay:10.37,2013-06-06 22:19:00,
2013-06-06 12:24:00,79.1,63.5,29.97,NNE,19,9.2,9.2,59,0.00,OVC,,0.00,276.0,WeatherDisplay:10.37,2013-06-06 22:24:00,
2013-06-06 12:29:00,79.1,63.5,29.97,East,80,9.2,9.2,59,0.00,OVC,,0.00,223.0,WeatherDisplay:10.37,2013-06-06 22:29:00,
2013-06-06 12:34:00,79.1,63.5,29.97,NNE,28,11.5,11.5,59,0.00,CLR,,0.00,1083.0,WeatherDisplay:10.37,2013-06-06 22:34:00,
2013-06-06 12:39:00,79.5,64.4,29.96,ENE,71,8.1,8.1,60,0.00,CLR,,0.00,1143.0,WeatherDisplay:10.37,2013-06-06 22:39:00,
2013-06-06 12:44:00,79.8,64.2,29.96,ESE,119,10.4,10.4,59,0.00,OVC,,0.00,329.0,WeatherDisplay:10.37,2013-06-06 22:44:00,
2013-06-06 12:49:00,79.5,64.4,29.96,ENE,60,11.5,11.5,60,0.00,BKN,,0.00,418.0,WeatherDisplay:10.37,2013-06-06 22:49:00,
2013-06-06 12:54:00,79.1,64.5,29.96,NNW,330,11.5,11.5,61,0.00,OVC,,0.00,316.0,WeatherDisplay:10.37,2013-06-06 22:54:00,
2013-06-06 12:59:00,78.4,64.8,29.95,ENE,57,8.1,8.1,63,0.00,BKN,,0.00,359.0,WeatherDisplay:10.37,2013-06-06 22:59:00,
2013-06-06 13:04:00,78.0,64.8,29.95,ENE,74,9.2,9.2,64,0.00,BKN,,0.00,279.0,WeatherDisplay:10.37,2013-06-06 23:04:00,
2013-06-06 13:09:00,77.6,63.5,29.96,ESE,103,9.2,9.2,62,0.00,BKN,,0.00,355.0,WeatherDisplay:10.37,2013-06-06 23:09:00,
2013-06-06 13:14:00,77.6,64.5,29.96,NE,40,8.1,8.1,64,0.00,BKN,,0.00,410.0,WeatherDisplay:10.37,2013-06-06 23:14:00,
2013-06-06 13:19:00,77.6,64.5,29.96,NE,44,9.2,9.2,64,0.00,OVC,,0.00,318.0,WeatherDisplay:10.37,2013-06-06 23:19:00,
2013-06-06 13:24:00,77.4,63.8,29.95,ENE,63,9.2,9.2,63,0.00,OVC,,0.00,279.0,WeatherDisplay:10.37,2013-06-06 23:24:00,
2013-06-06 13:29:00,77.5,63.5,29.96,ENE,61,9.2,9.2,62,0.00,OVC,,0.00,248.0,WeatherDisplay:10.37,2013-06-06 23:29:00,
2013-06-06 13:34:00,77.8,64.2,29.95,East,88,9.2,9.2,63,0.00,OVC,,0.00,265.0,WeatherDisplay:10.37,2013-06-06 23:34:00,
2013-06-06 13:39:00,77.8,63.7,29.95,NE,51,9.2,9.2,62,0.00,OVC,,0.00,248.0,WeatherDisplay:10.37,2013-06-06 23:39:00,
2013-06-06 13:44:00,77.9,64.3,29.95,ENE,63,8.1,8.1,63,0.00,BKN,,0.00,338.0,WeatherDisplay:10.37,2013-06-06 23:44:00,
2013-06-06 13:49:00,78.2,64.1,29.95,NE,40,9.0,9.0,62,0.00,CLR,,0.00,1178.0,WeatherDisplay:10.37,2013-06-06 23:49:00,
2013-06-06 13:54:00,78.4,64.8,29.95,North,360,8.1,8.1,63,0.00,SCT,,0.00,508.0,WeatherDisplay:10.37,2013-06-06 23:54:00,
2013-06-06 13:59:00,78.3,64.7,29.94,NNE,32,13.8,13.8,63,0.00,CLR,,0.00,1078.0,WeatherDisplay:10.37,2013-06-06 23:59:00,
2013-06-06 14:04:00,77.9,64.7,29.95,ENE,69,9.2,9.2,64,0.00,CLR,,0.00,1134.0,WeatherDisplay:10.37,2013-06-07 00:04:00,
2013-06-06 14:09:00,77.7,65.0,29.94,ENE,57,11.5,11.5,65,0.00,CLR,,0.00,1041.0,WeatherDisplay:10.37,2013-06-07 00:09:00,
2013-06-06 14:14:00,77.8,65.5,29.94,ENE,70,8.1,8.1,66,0.00,CLR,,0.00,1016.0,WeatherDisplay:10.37,2013-06-07 00:14:00,
2013-06-06 14:19:00,78.0,64.4,29.94,NE,50,11.5,11.5,63,0.00,CLR,,0.00,951.0,WeatherDisplay:10.37,2013-06-07 00:19:00,
2013-06-06 14:24:00,78.5,64.4,29.93,NE,50,11.5,11.5,62,0.00,CLR,,0.00,993.0,WeatherDisplay:10.37,2013-06-07 00:24:00,
2013-06-06 14:29:00,79.0,64.9,29.93,NE,45,12.7,12.7,62,0.00,CLR,,0.00,1169.0,WeatherDisplay:10.37,2013-06-07 00:29:00,
2013-06-06 14:34:00,78.9,65.2,29.93,ENE,61,11.5,11.5,63,0.00,CLR,,0.00,979.0,WeatherDisplay:10.37,2013-06-07 00:34:00,
2013-06-06 14:39:00,78.7,65.5,29.93,ESE,107,13.8,13.8,64,0.00,CLR,,0.00,902.0,WeatherDisplay:10.37,2013-06-07 00:39:00,
2013-06-06 14:44:00,78.6,64.9,29.92,NE,44,11.5,11.5,63,0.00,CLR,,0.00,877.0,WeatherDisplay:10.37,2013-06-07 00:44:00,
2013-06-06 14:49:00,78.3,64.7,29.93,ENE,65,9.2,9.2,63,0.00,CLR,,0.00,874.0,WeatherDisplay:10.37,2013-06-07 00:49:00,
2013-06-06 14:54:00,78.2,63.6,29.92,NNE,12,13.8,13.8,61,0.00,CLR,,0.00,867.0,WeatherDisplay:10.37,2013-06-07 00:54:00,
2013-06-06 14:59:00,78.4,64.3,29.92,ENE,76,8.1,8.1,62,0.00,CLR,,0.00,949.0,WeatherDisplay:10.37,2013-06-07 00:59:00,
2013-06-06 15:04:00,78.5,64.4,29.92,ENE,63,10.4,10.4,62,0.00,CLR,,0.00,1067.0,WeatherDisplay:10.37,2013-06-07 01:04:00,
2013-06-06 15:09:00,78.1,64.5,29.92,ENE,59,8.1,8.1,63,0.00,CLR,,0.00,877.0,WeatherDisplay:10.37,2013-06-07 01:09:00,
2013-06-06 15:14:00,78.3,64.7,29.92,NE,44,9.2,9.2,63,0.00,FEW,,0.00,504.0,WeatherDisplay:10.37,2013-06-07 01:14:00,
2013-06-06 15:19:00,78.2,64.6,29.92,ENE,78,15.0,15.0,63,0.00,FEW,,0.00,504.0,WeatherDisplay:10.37,2013-06-07 01:19:00,
2013-06-06 15:24:00,77.9,64.3,29.92,ENE,69,12.7,12.7,63,0.00,CLR,,0.00,773.0,WeatherDisplay:10.37,2013-06-07 01:24:00,
2013-06-06 15:29:00,78.0,64.4,29.91,NE,35,9.2,9.2,63,0.00,CLR,,0.00,759.0,WeatherDisplay:10.37,2013-06-07 01:29:00,
2013-06-06 15:34:00,78.1,64.0,29.91,ENE,59,10.4,10.4,62,0.00,CLR,,0.00,758.0,WeatherDisplay:10.37,2013-06-07 01:34:00,
2013-06-06 15:39:00,78.1,64.0,29.91,ENE,66,15.0,15.0,62,0.00,CLR,,0.00,744.0,WeatherDisplay:10.37,2013-06-07 01:39:00,
2013-06-06 15:44:00,78.1,64.0,29.91,NE,39,9.0,9.0,62,0.00,CLR,,0.00,724.0,WeatherDisplay:10.37,2013-06-07 01:44:00,
2013-06-06 15:49:00,77.7,63.6,29.91,North,5,12.7,12.7,62,0.00,CLR,,0.00,749.0,WeatherDisplay:10.37,2013-06-07 01:49:00,
2013-06-06 15:54:00,77.6,64.0,29.91,ENE,64,13.8,13.8,63,0.00,CLR,,0.00,777.0,WeatherDisplay:10.37,2013-06-07 01:54:00,
2013-06-06 15:59:00,77.7,63.6,29.91,ENE,69,9.2,9.2,62,0.00,BKN,,0.00,255.0,WeatherDisplay:10.37,2013-06-07 01:59:00,
2013-06-06 16:04:00,77.4,63.8,29.91,NE,48,8.1,8.1,63,0.00,BKN,,0.00,290.0,WeatherDisplay:10.37,2013-06-07 02:04:00,
2013-06-06 16:09:00,77.2,64.1,29.91,East,94,8.1,8.1,64,0.00,CLR,,0.00,722.0,WeatherDisplay:10.37,2013-06-07 02:09:00,
2013-06-06 16:14:00,77.3,64.2,29.91,NNE,30,11.5,11.5,64,0.00,CLR,,0.00,715.0,WeatherDisplay:10.37,2013-06-07 02:14:00,
2013-06-06 16:19:00,77.5,64.4,29.91,ESE,103,8.1,8.1,64,0.00,CLR,,0.00,664.0,WeatherDisplay:10.37,2013-06-07 02:19:00,
2013-06-06 16:24:00,77.3,63.7,29.91,NE,46,8.1,8.1,63,0.00,CLR,,0.00,615.0,WeatherDisplay:10.37,2013-06-07 02:24:00,
2013-06-06 16:29:00,77.1,64.0,29.91,NE,54,10.4,10.4,64,0.00,CLR,,0.00,647.0,WeatherDisplay:10.37,2013-06-07 02:29:00,
2013-06-06 16:34:00,77.1,64.0,29.91,ESE,119,9.2,9.2,64,0.00,CLR,,0.00,599.0,WeatherDisplay:10.37,2013-06-07 02:34:00,
2013-06-06 16:39:00,77.2,64.5,29.91,NE,49,8.1,8.1,65,0.00,CLR,,0.00,550.0,WeatherDisplay:10.37,2013-06-07 02:39:00,
2013-06-06 16:44:00,77.1,64.0,29.91,NE,42,10.4,10.4,64,0.00,CLR,,0.00,522.0,WeatherDisplay:10.37,2013-06-07 02:44:00,
2013-06-06 16:49:00,76.7,64.5,29.91,ENE,69,11.5,11.5,66,0.00,CLR,,0.00,501.0,WeatherDisplay:10.37,2013-06-07 02:49:00,
2013-06-06 16:54:00,76.6,64.0,29.92,East,84,11.5,11.5,65,0.00,CLR,,0.00,476.0,WeatherDisplay:10.37,2013-06-07 02:54:00,
2013-06-06 16:59:00,76.1,63.9,29.91,North,11,11.5,11.5,66,0.00,CLR,,0.00,462.0,WeatherDisplay:10.37,2013-06-07 02:59:00,
2013-06-06 17:04:00,76.2,64.0,29.91,ENE,60,5.8,5.8,66,0.00,CLR,,0.00,439.0,WeatherDisplay:10.37,2013-06-07 03:04:00,
2013-06-06 17:09:00,76.1,63.9,29.91,NE,40,11.5,11.5,66,0.00,CLR,,0.00,418.0,WeatherDisplay:10.37,2013-06-07 03:09:00,
2013-06-06 17:14:00,76.0,63.4,29.91,ENE,63,12.7,12.7,65,0.00,CLR,,0.00,399.0,WeatherDisplay:10.37,2013-06-07 03:14:00,
2013-06-06 17:19:00,75.9,63.7,29.92,ENE,74,10.4,10.4,66,0.00,CLR,,0.00,387.0,WeatherDisplay:10.37,2013-06-07 03:19:00,
2013-06-06 17:24:00,75.8,64.1,29.92,ENE,73,12.7,12.7,67,0.00,CLR,,0.00,346.0,WeatherDisplay:10.37,2013-06-07 03:24:00,
2013-06-06 17:29:00,75.6,63.9,29.91,NNE,26,9.2,9.2,67,0.00,CLR,,0.00,306.0,WeatherDisplay:10.37,2013-06-07 03:29:00,
2013-06-06 17:34:00,75.3,63.6,29.91,ENE,63,12.0,12.0,67,0.00,CLR,,0.00,306.0,WeatherDisplay:10.37,2013-06-07 03:34:00,
2013-06-06 17:39:00,74.9,63.6,29.92,ENE,71,9.2,9.2,68,0.00,CLR,,0.00,251.0,WeatherDisplay:10.37,2013-06-07 03:39:00,
2013-06-06 17:44:00,74.7,63.4,29.92,NE,34,9.2,9.2,68,0.00,CLR,,0.00,308.0,WeatherDisplay:10.37,2013-06-07 03:44:00,
2013-06-06 17:49:00,74.6,63.8,29.92,ENE,74,9.2,9.2,69,0.00,CLR,,0.00,258.0,WeatherDisplay:10.37,2013-06-07 03:49:00,
2013-06-06 17:54:00,74.6,63.3,29.93,ENE,58,5.8,5.8,68,0.00,CLR,,0.00,251.0,WeatherDisplay:10.37,2013-06-07 03:54:00,
2013-06-06 17:59:00,74.6,63.3,29.93,ENE,61,9.2,9.2,68,0.00,CLR,,0.00,244.0,WeatherDisplay:10.37,2013-06-07 03:59:00,
2013-06-06 18:01:00,74.5,63.2,29.93,ENE,65,8.1,8.1,68,0.00,CLR,,0.00,237.0,WeatherDisplay:10.37,2013-06-07 04:01:00,
2013-06-06 18:06:00,74.3,63.5,29.93,NE,34,9.2,9.2,69,0.00,CLR,,0.00,144.0,WeatherDisplay:10.37,2013-06-07 04:06:00,
2013-06-06 18:11:00,74.1,63.3,29.93,ENE,60,9.2,9.2,69,0.00,CLR,,0.00,144.0,WeatherDisplay:10.37,2013-06-07 04:11:00,
2013-06-06 18:16:00,73.9,63.1,29.93,ENE,63,11.5,11.5,69,0.00,CLR,,0.00,142.0,WeatherDisplay:10.37,2013-06-07 04:16:00,
2013-06-06 18:21:00,73.7,63.3,29.93,NE,40,5.0,5.0,70,0.00,CLR,,0.00,121.0,WeatherDisplay:10.37,2013-06-07 04:21:00,
2013-06-06 18:27:00,73.4,63.0,29.94,NE,49,9.2,9.2,70,0.00,CLR,,0.00,95.0,WeatherDisplay:10.37,2013-06-07 04:27:00,
2013-06-06 18:32:00,73.1,63.1,29.93,ENE,63,8.1,8.1,71,0.00,CLR,,0.00,76.0,WeatherDisplay:10.37,2013-06-07 04:32:00,
2013-06-06 18:37:00,72.8,62.8,29.94,NNW,343,8.0,8.0,71,0.00,BKN,,0.00,35.0,WeatherDisplay:10.37,2013-06-07 04:37:00,
2013-06-06 18:42:00,72.6,63.1,29.94,NE,53,8.1,8.1,72,0.00,BKN,,0.00,28.0,WeatherDisplay:10.37,2013-06-07 04:42:00,
2013-06-06 18:47:00,72.3,63.2,29.94,ENE,61,10.4,10.4,73,0.00,BKN,,0.00,23.0,WeatherDisplay:10.37,2013-06-07 04:47:00,
2013-06-06 18:52:00,72.2,63.1,29.94,NE,49,9.0,9.0,73,0.00,BKN,,0.00,18.0,WeatherDisplay:10.37,2013-06-07 04:52:00,
2013-06-06 18:57:00,72.0,63.3,29.95,NE,53,8.1,8.1,74,0.00,SCT,,0.00,18.0,WeatherDisplay:10.37,2013-06-07 04:57:00,
2013-06-06 19:02:00,71.8,63.1,29.95,East,81,8.1,8.1,74,0.00,SCT,,0.00,12.0,WeatherDisplay:10.37,2013-06-07 05:02:00,
2013-06-06 19:07:00,71.7,63.0,29.95,ENE,63,8.0,8.0,74,0.00,SCT,,0.00,7.0,WeatherDisplay:10.37,2013-06-07 05:07:00,
2013-06-06 19:12:00,71.6,63.3,29.95,ENE,77,8.1,8.1,75,0.00,CLR,,0.00,0.0,WeatherDisplay:10.37,2013-06-07 05:12:00,
2013-06-06 19:17:00,71.5,63.2,29.95,NNE,18,8.1,8.1,75,0.00,CLR,,0.00,0.0,WeatherDisplay:10.37,2013-06-07 05:17:00,
2013-06-06 19:22:00,71.4,63.1,29.95,ENE,65,8.1,8.1,75,0.00,CLR,,0.00,0.0,WeatherDisplay:10.37,2013-06-07 05:22:00,
2013-06-06 19:27:00,71.3,63.0,29.96,NE,35,11.5,11.5,75,0.00,CLR,,0.00,0.0,WeatherDisplay:10.37,2013-06-07 05:27:00,
2013-06-06 19:32:00,71.3,63.0,29.96,NE,36,10.4,10.4,75,0.00,CLR,,0.00,0.0,WeatherDisplay:10.37,2013-06-07 05:32:00,
2013-06-06 19:37:00,71.3,63.3,29.96,ENE,63,7.0,7.0,76,0.00,CLR,,0.00,0.0,WeatherDisplay:10.37,2013-06-07 05:37:00,
2013-06-06 19:42:00,71.3,63.3,29.96,NE,48,8.1,8.1,76,0.00,CLR,,0.00,0.0,WeatherDisplay:10.37,2013-06-07 05:42:00,
2013-06-06 19:47:00,71.3,63.3,29.96,ENE,61,7.0,7.0,76,0.00,CLR,,0.00,0.0,WeatherDisplay:10.37,2013-06-07 05:47:00,
2013-06-06 19:52:00,71.3,63.3,29.96,NE,56,5.8,5.8,76,0.00,CLR,,0.00,0.0,WeatherDisplay:10.37,2013-06-07 05:52:00,
2013-06-06 19:57:00,71.3,63.3,29.97,ENE,68,6.9,6.9,76,0.00,CLR,,0.00,0.0,WeatherDisplay:10.37,2013-06-07 05:57:00,
2013-06-06 20:02:00,71.3,63.7,29.97,NE,44,8.1,8.1,77,0.00,CLR,,0.00,0.0,WeatherDisplay:10.37,2013-06-07 06:02:00,
2013-06-06 20:07:00,71.3,63.7,29.97,NNE,19,6.9,6.9,77,0.00,CLR,,0.00,0.0,WeatherDisplay:10.37,2013-06-07 06:07:00,
2013-06-06 20:12:00,71.2,63.6,29.97,NE,38,8.0,8.0,77,0.00,CLR,,0.00,0.0,WeatherDisplay:10.37,2013-06-07 06:12:00,
2013-06-06 20:17:00,71.2,63.6,29.97,NNE,27,5.0,5.0,77,0.00,CLR,,0.00,0.0,WeatherDisplay:10.37,2013-06-07 06:17:00,
2013-06-06 20:22:00,71.2,63.6,29.97,ENE,70,5.8,5.8,77,0.00,CLR,,0.00,0.0,WeatherDisplay:10.37,2013-06-07 06:22:00,
2013-06-06 20:27:00,71.1,63.9,29.98,ENE,60,6.9,6.9,78,0.00,CLR,,0.00,0.0,WeatherDisplay:10.37,2013-06-07 06:27:00,
2013-06-06 20:32:00,71.0,63.8,29.98,NE,38,4.6,4.6,78,0.00,CLR,,0.00,0.0,WeatherDisplay:10.37,2013-06-07 06:32:00,
2013-06-06 20:37:00,70.9,63.7,29.98,NE,42,5.0,5.0,78,0.00,CLR,,0.00,0.0,WeatherDisplay:10.37,2013-06-07 06:37:00,
2013-06-06 20:42:00,70.9,64.1,29.99,NE,53,3.5,3.5,79,0.00,CLR,,0.00,0.0,WeatherDisplay:10.37,2013-06-07 06:42:00,
2013-06-06 20:47:00,70.8,64.0,29.99,NNE,31,6.9,6.9,79,0.00,CLR,,0.00,0.0,WeatherDisplay:10.37,2013-06-07 06:47:00,
2013-06-06 20:52:00,70.7,63.9,29.99,NE,44,8.0,8.0,79,0.00,CLR,,0.00,0.0,WeatherDisplay:10.37,2013-06-07 06:52:00,
2013-06-06 20:57:00,70.7,63.9,29.99,North,355,6.9,6.9,79,0.00,CLR,,0.00,0.0,WeatherDisplay:10.37,2013-06-07 06:57:00,
2013-06-06 21:02:00,70.6,63.8,29.99,NE,51,5.8,5.8,79,0.00,CLR,,0.00,0.0,WeatherDisplay:10.37,2013-06-07 07:02:00,
2013-06-06 21:07:00,70.5,63.3,29.99,North,360,8.1,8.1,78,0.00,CLR,,0.00,0.0,WeatherDisplay:10.37,2013-06-07 07:07:00,
2013-06-06 21:12:00,70.4,63.2,29.99,East,82,6.9,6.9,78,0.00,CLR,,0.00,0.0,WeatherDisplay:10.37,2013-06-07 07:12:00,
2013-06-06 21:17:00,70.3,63.1,29.99,NNE,32,9.2,9.2,78,0.00,CLR,,0.00,0.0,WeatherDisplay:10.37,2013-06-07 07:17:00,
2013-06-06 21:22:00,70.2,63.0,29.99,ENE,75,8.1,8.1,78,0.00,CLR,,0.00,0.0,WeatherDisplay:10.37,2013-06-07 07:22:00,
2013-06-06 21:27:00,70.1,62.9,29.99,NE,53,7.0,7.0,78,0.00,CLR,,0.00,0.0,WeatherDisplay:10.37,2013-06-07 07:27:00,
2013-06-06 21:32:00,70.1,62.9,30.00,NNE,32,5.8,5.8,78,0.00,CLR,,0.00,0.0,WeatherDisplay:10.37,2013-06-07 07:32:00,
2013-06-06 21:37:00,70.1,62.9,30.00,NE,37,5.0,5.0,78,0.00,CLR,,0.00,0.0,WeatherDisplay:10.37,2013-06-07 07:37:00,
2013-06-06 21:42:00,70.1,63.3,30.00,NE,52,5.8,5.8,79,0.00,CLR,,0.00,0.0,WeatherDisplay:10.37,2013-06-07 07:42:00,
2013-06-06 21:47:00,70.2,63.4,30.00,NNE,13,4.6,4.6,79,0.00,CLR,,0.00,0.0,WeatherDisplay:10.37,2013-06-07 07:47:00,
2013-06-06 21:52:00,70.2,63.4,30.00,ENE,72,6.9,6.9,79,0.00,CLR,,0.00,0.0,WeatherDisplay:10.37,2013-06-07 07:52:00,
2013-06-06 21:57:00,70.2,63.4,30.00,NNE,23,5.0,5.0,79,0.00,CLR,,0.00,0.0,WeatherDisplay:10.37,2013-06-07 07:57:00,
2013-06-06 22:02:00,70.3,63.5,30.00,ENE,66,5.0,5.0,79,0.00,CLR,,0.00,0.0,WeatherDisplay:10.37,2013-06-07 08:02:00,
2013-06-06 22:07:00,70.3,63.5,30.00,ENE,74,6.9,6.9,79,0.00,CLR,,0.00,0.0,WeatherDisplay:10.37,2013-06-07 08:07:00,
2013-06-06 22:12:00,70.3,63.5,30.00,NE,56,4.6,4.6,79,0.00,CLR,,0.00,0.0,WeatherDisplay:10.37,2013-06-07 08:12:00,
2013-06-06 22:17:00,70.3,63.5,30.01,ENE,61,4.6,4.6,79,0.00,CLR,,0.00,0.0,WeatherDisplay:10.37,2013-06-07 08:17:00,
2013-06-06 22:22:00,70.2,63.4,30.00,ENE,62,3.5,3.5,79,0.00,CLR,,0.00,0.0,WeatherDisplay:10.37,2013-06-07 08:22:00,
2013-06-06 22:27:00,70.2,63.4,30.01,ENE,75,4.6,4.6,79,0.00,CLR,,0.00,0.0,WeatherDisplay:10.37,2013-06-07 08:27:00,
2013-06-06 22:32:00,70.2,63.4,30.01,NNE,28,4.6,4.6,79,0.00,CLR,,0.00,0.0,WeatherDisplay:10.37,2013-06-07 08:32:00,
2013-06-06 22:37:00,70.2,63.4,30.00,North,355,8.1,8.1,79,0.00,CLR,,0.00,0.0,WeatherDisplay:10.37,2013-06-07 08:37:00,
2013-06-06 22:42:00,70.3,63.5,30.01,ENE,66,9.2,9.2,79,0.00,CLR,,0.00,0.0,WeatherDisplay:10.37,2013-06-07 08:42:00,
2013-06-06 22:47:00,70.4,63.6,30.01,ENE,68,6.9,6.9,79,0.00,CLR,,0.00,0.0,WeatherDisplay:10.37,2013-06-07 08:47:00,
2013-06-06 22:52:00,70.5,64.0,30.01,North,5,4.6,4.6,80,0.00,CLR,,0.00,0.0,WeatherDisplay:10.37,2013-06-07 08:52:00,
2013-06-06 22:57:00,70.5,64.0,30.01,ENE,61,4.6,4.6,80,0.00,CLR,,0.00,0.0,WeatherDisplay:10.37,2013-06-07 08:57:00,
2013-06-06 23:02:00,70.4,63.9,30.01,NE,44,9.2,9.2,80,0.00,CLR,,0.00,0.0,WeatherDisplay:10.37,2013-06-07 09:02:00,
2013-06-06 23:07:00,70.3,63.8,30.01,East,86,7.0,7.0,80,0.00,CLR,,0.00,0.0,WeatherDisplay:10.37,2013-06-07 09:07:00,
2013-06-06 23:12:00,70.2,63.7,30.01,NNE,13,9.2,9.2,80,0.00,CLR,,0.00,0.0,WeatherDisplay:10.37,2013-06-07 09:12:00,
2013-06-06 23:17:00,70.1,63.6,30.01,ENE,61,9.0,9.0,80,0.00,CLR,,0.00,0.0,WeatherDisplay:10.37,2013-06-07 09:17:00,
2013-06-06 23:22:00,69.9,63.4,30.01,East,81,6.0,6.0,80,0.00,CLR,,0.00,0.0,WeatherDisplay:10.37,2013-06-07 09:22:00,
2013-06-06 23:27:00,69.9,63.4,30.01,ENE,59,5.8,5.8,80,0.00,CLR,,0.00,0.0,WeatherDisplay:10.37,2013-06-07 09:27:00,
2013-06-06 23:32:00,69.9,63.4,30.01,NE,55,8.1,8.1,80,0.00,CLR,,0.00,0.0,WeatherDisplay:10.37,2013-06-07 09:32:00,
2013-06-06 23:37:00,69.8,63.7,30.01,ENE,57,9.2,9.2,81,0.00,CLR,,0.00,0.0,WeatherDisplay:10.37,2013-06-07 09:37:00,
2013-06-06 23:42:00,69.7,63.3,30.01,ENE,64,9.2,9.2,80,0.00,CLR,,0.00,0.0,WeatherDisplay:10.37,2013-06-07 09:42:00,
2013-06-06 23:47:00,69.6,63.2,30.01,ENE,61,4.6,4.6,80,0.00,CLR,,0.00,0.0,WeatherDisplay:10.37,2013-06-07 09:47:00,
2013-06-06 23:53:00,69.6,63.2,30.01,NE,40,6.9,6.9,80,0.00,CLR,,0.00,0.0,WeatherDisplay:10.37,2013-06-07 09:53:00,
2013-06-06 23:58:00,69.6,63.2,30.01,ENE,62,9.2,9.2,80,0.00,CLR,,0.00,0.0,WeatherDisplay:10.37,2013-06-07 09:58:00,